Tracking 31030 objects as of 15-Jul-2025
HD Live streaming from Space Station
objects crossing your sky now

ABS 3

Track ABS 3 now!
ABS 3 is classified as:


NORAD ID: 24901
Int'l Code: 1997-042A
Perigee: 36,064.2 km
Apogee: 36,094.6 km
Inclination: 10.5 °
Period: 1,450.7 minutes
Semi major axis: 42450 km
RCS: 10 m2 (large)
Launch date: August 19, 1997
Source: People's Republic of China (PRC)
Launch site: Xichang Space Center, China (XSC)

Most powerful telecommunications satellite in service in the Asia-Pacific region; 30 C-band, 24 Ku-band transponders; 190 high fidelity channels and 50,000 simultaneous telephone links.
Your satellite tracking list
Your tracking list is empty




NASA's NSSDC Master Catalog

Two Line Element Set (TLE):
1 24901U 97042A   25195.47730363 -.00000225  00000-0  00000-0 0  9993
2 24901  10.5199  45.6244 0003570 134.3375 231.2431  0.99261385101886
Source of the keplerian elements: AFSPC